Union Aéronautique de la Côte d'Azur

Union Aéronautique de la Côte d'Azur
UACA
Approuvé A.T.O. EASA – N°FR.ATO.0108

UNION des aéroclubs
Cannes “Ailes d’Azur”, Nice “Côte d’Azur”, Grasse “St Exupery”, ACCA “Francis Séverac”

Un cache-pitot se trouve à bord de chaque avion. Pensez à le mettre en place à la fin de chaque vol !

Avant de quitter l'avion, vérifiez que vous n'emportez pas la checklist

Un vol ne s'entreprend qu'avec un pare-brise parfaitement propre, il en va de votre sécurité, et de celle des autres

Après chaque vol, merci de mettre en place les pares-soleil!


Météo à Cannes:
METAR
LFMD 121500Z AUTO 26017KT 220V300 CAVOK 23/06 Q1006 BECMG 24020G30KT =
LFMD 121400Z 1215/1315 24020G30KT CAVOK BECMG 1222/1224 VRB05KT BECMG 1309/1311 12010KT

TAF
LFMD 121400Z 1215/1315 24020G30KT CAVOK BECMG 1222/1224 VRB05KT BECMG 1309/1311 12010KT =

SR / SS: 04:06 / 18:50 UTC (LFMD 2021-05-12)